Location: Archemont
(49.1579°N, 1.7598°E)
Time: 10:10:30
(UTC+00:00)

Lacrosse 5 - Pass Details

Date: 03 February 2023
Orbit: 714 x 724 km, 57.0° (Epoch: 09 March)

Event Time Altitude Azimuth Distance (km) Brightness Sun altitude
Rises 20:09:01 0° 265° (W) 3,136 6.2 -32.2°
Reaches altitude 10° 20:11:32 10° 272° (W) 2,217 5.2 -32.6°
Enters shadow 20:15:03 35° 307° (NW) 1,167 3.3 -33.1°
